Chandler, OK

7:39 PM CDT on July 26, 2017 (GMT -0500)
Chandler Municipal

Weather History for KCQB - May, 2014

Change the Weather History Date:

Thursday, May 1, 2014

  Actual Average (KCUH) Record (KCUH)
Temperature  
Mean Temperature 56 °F -  
Max Temperature 71 °F 74 °F 96 °F (1948)
Min Temperature 41 °F 51 °F 35 °F (2014)
Degree Days  
Heating Degree Days 9    
Growing Degree Days 6 (Base 50)    
Moisture  
Dew Point 35 °F    
Average Humidity 48    
Maximum Humidity 76    
Minimum Humidity 28    
Precipitation  
Precipitation 0.00 in - - ()
Sea Level Pressure  
Sea Level Pressure 30.08 in    
Wind  
Wind Speed 9 mph (NW)    
Max Wind Speed 20 mph    
Max Gust Speed 30 mph    
Visibility 10 miles    
Events      
Averages and records for this station are not official NWS values.
T = Trace of Precipitation, MM = Missing Value Source: NWS Daily Summary

Daily Weather History Graph

Daily Weather History Graph

Search for Another Location

Airport or City:

Trip Planner

Search our weather history database for the weather conditions in past years. The results will help you decide how hot, cold, wet, or windy it might be!

Date:

Astronomy

May. 01, 2014 Rise Set
Actual Time 6:35 AM CDT 8:14 PM CDT
Civil Twilight 6:07 AM CDT 8:41 PM CDT
Nautical Twilight 5:34 AM CDT 9:14 PM CDT
Astronomical Twilight 5:00 AM CDT 9:49 PM CDT
Moon 8:25 AM CDT (5/1) 10:46 PM CDT (5/1)
Length of Visible Light 14h 33m
Length of Day
13h 38m
Waxing Crescent, 7% of the Moon is Illuminated
May 1
Waxing Crescent
May 6
First Quarter
May 14
Full
May 21
Last Quarter
May 28
New

Hourly Weather History & Observations

Time (CDT) Temp. Windchill Dew Point Humidity Pressure Visibility Wind Dir Wind Speed Gust Speed Precip Events Conditions
12:15 AM 46.4 °F 43.5 °F 33.8 °F 62% 30.12 in 10.0 mi WSW 5.8 mph - N/A   Clear
12:35 AM 46.4 °F 43.5 °F 33.8 °F 62% 30.12 in 10.0 mi West 5.8 mph - N/A   Clear
1:15 AM 44.6 °F 41.4 °F 33.8 °F 66% 30.13 in 10.0 mi West 5.8 mph - N/A   Clear
1:35 AM 44.6 °F 41.4 °F 33.8 °F 66% 30.13 in 10.0 mi West 5.8 mph - N/A   Clear
1:55 AM 42.8 °F 38.6 °F 33.8 °F 70% 30.13 in 10.0 mi West 6.9 mph - N/A   Clear
2:15 AM 42.8 °F 38.6 °F 33.8 °F 70% 30.13 in 10.0 mi West 6.9 mph - N/A   Clear
2:35 AM 42.8 °F 38.6 °F 33.8 °F 70% 30.13 in 10.0 mi West 6.9 mph - N/A   Clear
2:55 AM 42.8 °F 38.0 °F 33.8 °F 70% 30.12 in 10.0 mi WNW 8.1 mph - N/A   Clear
3:15 AM 42.8 °F 38.0 °F 33.8 °F 70% 30.12 in 10.0 mi WNW 8.1 mph - N/A   Clear
3:35 AM 42.8 °F 38.0 °F 33.8 °F 70% 30.12 in 10.0 mi WNW 8.1 mph - N/A   Clear
4:15 AM 42.8 °F 38.6 °F 33.8 °F 70% 30.12 in 10.0 mi WNW 6.9 mph - N/A   Clear
4:35 AM 42.8 °F 38.6 °F 33.8 °F 70% 30.13 in 10.0 mi West 6.9 mph - N/A   Clear
5:15 AM 42.8 °F 38.6 °F 33.8 °F 70% 30.12 in 10.0 mi West 6.9 mph - N/A   Clear
5:35 AM 42.8 °F 38.0 °F 33.8 °F 70% 30.12 in 10.0 mi West 8.1 mph - N/A   Clear
6:15 AM 42.8 °F 38.0 °F 33.8 °F 70% 30.12 in 10.0 mi WNW 8.1 mph - N/A   Clear
6:35 AM 41.0 °F 37.1 °F 33.8 °F 76% 30.12 in 10.0 mi WNW 5.8 mph - N/A   Clear
6:55 AM 41.0 °F 36.4 °F 33.8 °F 76% 30.12 in 10.0 mi WNW 6.9 mph - N/A   Clear
7:15 AM 41.0 °F 35.8 °F 33.8 °F 76% 30.13 in 10.0 mi WNW 8.1 mph - N/A   Clear
7:35 AM 42.8 °F 38.6 °F 33.8 °F 70% 30.13 in 10.0 mi WNW 6.9 mph - N/A   Clear
7:55 AM 46.4 °F 41.9 °F 35.6 °F 66% 30.13 in 10.0 mi WNW 9.2 mph - N/A   Clear
8:15 AM 48.2 °F - 35.6 °F 62% 30.14 in 10.0 mi WNW 8.1 mph - N/A   Clear
8:35 AM 51.8 °F - 35.6 °F 54% 30.14 in 10.0 mi WNW 10.4 mph - N/A   Clear
8:55 AM 53.6 °F - 35.6 °F 51% 30.14 in 10.0 mi WNW 10.4 mph - N/A   Clear
9:15 AM 55.4 °F - 35.6 °F 47% 30.14 in 10.0 mi WNW 13.8 mph 18.4 mph N/A   Clear
9:55 AM 60.8 °F - 35.6 °F 39% 30.14 in 10.0 mi NW 15.0 mph 19.6 mph N/A   Clear
10:15 AM 60.8 °F - 35.6 °F 39% 30.13 in 10.0 mi NW 15.0 mph 23.0 mph N/A   Clear
10:35 AM 60.8 °F - 35.6 °F 39% 30.13 in 10.0 mi NNW 17.3 mph 24.2 mph N/A   Clear
10:55 AM 62.6 °F - 35.6 °F 37% 30.13 in 10.0 mi NW 16.1 mph 23.0 mph N/A   Clear
11:15 AM 62.6 °F - 37.4 °F 39% 30.13 in 10.0 mi WNW 19.6 mph 25.3 mph N/A   Clear
11:35 AM 62.6 °F - 35.6 °F 37% 30.13 in 10.0 mi WNW 19.6 mph 28.8 mph N/A   Clear
12:15 PM 64.4 °F - 37.4 °F 37% 30.11 in 10.0 mi NW 12.7 mph 25.3 mph N/A   Clear
12:35 PM 66.2 °F - 37.4 °F 35% 30.10 in 10.0 mi NW 15.0 mph 23.0 mph N/A   Clear
12:55 PM 66.2 °F - 37.4 °F 35% 30.10 in 10.0 mi NW 15.0 mph 19.6 mph N/A   Scattered Clouds
1:15 PM 68.0 °F - 37.4 °F 33% 30.09 in 10.0 mi NW 15.0 mph 24.2 mph N/A   Scattered Clouds
1:35 PM 68.0 °F - 37.4 °F 33% 30.08 in 10.0 mi WNW 12.7 mph 26.5 mph N/A   Scattered Clouds
1:55 PM 69.8 °F - 37.4 °F 31% 30.07 in 10.0 mi NW 19.6 mph 25.3 mph N/A   Scattered Clouds
2:15 PM 69.8 °F - 37.4 °F 31% 30.07 in 10.0 mi WNW 16.1 mph 24.2 mph N/A   Scattered Clouds
2:35 PM 69.8 °F - 37.4 °F 31% 30.06 in 10.0 mi NW 19.6 mph 29.9 mph N/A   Scattered Clouds
2:55 PM 68.0 °F - 37.4 °F 33% 30.05 in 10.0 mi NNW 13.8 mph 19.6 mph N/A   Mostly Cloudy
3:15 PM 71.6 °F - 37.4 °F 29% 30.05 in 10.0 mi North 13.8 mph 23.0 mph N/A   Mostly Cloudy
3:35 PM 69.8 °F - 35.6 °F 28% 30.04 in 10.0 mi NNW 12.7 mph 20.7 mph N/A   Mostly Cloudy
4:15 PM 69.8 °F - 35.6 °F 28% 30.02 in 10.0 mi North 12.7 mph 23.0 mph N/A   Mostly Cloudy
4:55 PM 68.0 °F - 35.6 °F 30% 30.02 in 10.0 mi NW 12.7 mph 18.4 mph N/A   Mostly Cloudy
5:15 PM 68.0 °F - 37.4 °F 33% 30.02 in 10.0 mi North 10.4 mph 18.4 mph N/A   Mostly Cloudy
5:35 PM 69.8 °F - 35.6 °F 28% 30.02 in 10.0 mi North 12.7 mph 18.4 mph N/A   Mostly Cloudy
5:55 PM 69.8 °F - 35.6 °F 28% 30.01 in 10.0 mi NNW 12.7 mph 19.6 mph N/A   Mostly Cloudy
6:15 PM 69.8 °F - 35.6 °F 28% 30.02 in 10.0 mi North 10.4 mph - N/A   Mostly Cloudy
6:35 PM 68.0 °F - 35.6 °F 30% 30.01 in 10.0 mi NNW 10.4 mph 17.3 mph N/A   Mostly Cloudy
6:55 PM 68.0 °F - 33.8 °F 28% 30.01 in 10.0 mi NNW 10.4 mph - N/A   Scattered Clouds
7:15 PM 68.0 °F - 35.6 °F 30% 30.01 in 10.0 mi North 10.4 mph - N/A   Scattered Clouds
7:35 PM 66.2 °F - 35.6 °F 32% 30.01 in 10.0 mi North 5.8 mph - N/A   Clear
7:55 PM 62.6 °F - 35.6 °F 37% 30.01 in 10.0 mi NNW 3.5 mph - N/A   Clear
8:15 PM 62.6 °F - 35.6 °F 37% 30.02 in 7.0 mi Calm Calm - N/A   Clear
8:35 PM 60.8 °F - 35.6 °F 39% 30.02 in 10.0 mi NNE 4.6 mph - N/A   Clear
8:55 PM 60.8 °F - 35.6 °F 39% 30.03 in 10.0 mi North 3.5 mph - N/A   Clear
9:15 PM 60.8 °F - 35.6 °F 39% 30.03 in 10.0 mi NE 4.6 mph - N/A   Clear
9:35 PM 59.0 °F - 35.6 °F 42% 30.04 in 10.0 mi ENE 3.5 mph - N/A   Clear
9:55 PM 59.0 °F - 35.6 °F 42% 30.05 in 10.0 mi Calm Calm - N/A   Clear
10:15 PM 57.2 °F - 35.6 °F 44% 30.05 in 10.0 mi NE 3.5 mph - N/A   Clear
10:35 PM 55.4 °F - 35.6 °F 47% 30.05 in 10.0 mi Calm Calm - N/A   Clear
10:55 PM 55.4 °F - 35.6 °F 47% 30.05 in 10.0 mi Calm Calm - N/A   Clear
11:15 PM 55.4 °F - 35.6 °F 47% 30.05 in 10.0 mi Calm Calm - N/A   Clear
11:35 PM 55.4 °F - 35.6 °F 47% 30.05 in 7.0 mi Calm Calm - N/A   Clear
11:55 PM 51.8 °F - 35.6 °F 54% 30.05 in 10.0 mi Calm Calm - N/A   Clear